Retour au catalogue

STARLINK-3793

ActifCommunicationsVLEO
NORAD 52380·PAYLOAD·🇺🇸 United States

Lancé Apr 29, 2022 depuis Cape Canaveral Space Force Station

Loading…

Prochains Passages (prochaines 24 heures)

TLE

FraisSource: CelesTrak SupGP

Époque: Sep 15, 2026, 02:02 UTC

1 52380C 22045BB  26258.08520833 -.00029757  00000+0 -87906-3 0  2585
2 52380  53.1596  34.6824 0000971 115.2845 305.9837 15.34410469    12

Suivez STARLINK-3793 en temps réel avec AllMySat

Download on the App Store